Lid_Strength_Index
0 -0 0 0 0 1 0 0 -1 -1 -1 -1 -1 -1 -1 -0 -0 -0 0 1 1 1
1 1 0 -0 -0 0 -0 -0 -1 -1 -0 -1 -1 -1 -1 -0 0 -0 -0 0 0 1
1 0 0 -0 0 -0 -0 -0 -0 -0 -0 -0 -0 -1 -0 -0 -1 0 0 0 0 0
2 2 1 1 0 0 -0 -0 0 -0 -0 0 -0 -0 -0 0 -0 0 0 -0 0 0
4 3 3 3 2 2 2 1 1 0 1 0 0 -0 0 0 1 1 1 1 0 0
4 4 3 3 2 2 3 3 3 3 3 2 1 0 0 0 1 1 1 1 0 0
3 3 2 2 2 2 3 3 3 3 3 2 2 2 1 0 1 1 0 0 0 0
3 2 2 3 3 3 3 3 3 3 3 2 2 2 1 1 0 1 1 0 0 0
3 3 3 3 3 3 3 3 2 3 3 2 2 4 4 2 1 1 1 1 0 0
4 5 4 4 4 4 3 3 3 3 3 4 3 5 6 6 3 2 2 2 1 1
5 5 5 5 5 5 6 7 6 6 6 5 5 8 8 8 6 4 2 2 3 3
7 7 7 8 8 8 8 9 9 9 9 8 8 9 10 10 7 7 5 4 3 4
9 10 10 12 12 11 11 12 12 11 11 10 9 10 11 10 8 8 6 4 3 6
11 12 12 12 12 12 13 12 13 12 11 11 10 9 11 11 9 8 6 5 4 3